| State | Missouri | Latest | Good (162 cfs) | |
| River | Little Piney Creek | Rating | Observed | Estimated |
| Updated | 2026-05-10 8:00 (26 minutes ago) | Flood - The river is flooding. Obstacles can be treacherous or deadly. The river should be avoided at this stage for casual trips and definitely for the inexperienced. Trips should be attempted only with protective gear and equipment.Flood | (none) | 535 |
| Discharge | 162 cfs (median: 174 cfs) | High - The river is high and potentially dangerous, especially for the young and / or inexperienced. Normal stream obstacles are sometimes difficult to navigate. Extended distances can be attempted, but canoe travel may not be advisable.High | (none) | 280 |
| Height | 2.88 feet | Good - Conditions are ideal for a canoe or kayak. Boats typically will drag on fewer than one-quarter of riffles, if at all, and portages are unnecessary or rare. Normal float lengths can be attempted without a problem.Good | (none) | 154 |
| Trend | Steady (falling over 24 hours) | Low - River is low but can still be floated. Some riffles are okay but most come with significant dragging and might need a portage. Float lengths should be reduced to accommodate low flow, dragging, and portages.Low | 140 | 111 |
| USGS | USGS Site ( Duck Duck Go Maps) | Poor - River is too low to float comfortably. Most or all riffles will drag or must be portaged and some obstacles (such as slick shelf rock) cause undue problems. Avoid the river at this stage for casual paddling trips.Poor | (none) | 68 |
A total of 1 rows are displayed.
| Miles | 4.8 |
| Trips | 1 |
| People | 3 |
| Dates | 1 |
| Years | 1 |
| Months | 1 |
| Rows | 1 |
| Sources | 1 |
BLG - Bluegill
CCF - Channel Catfish
CP - Chain Pickerel
FWD - Freshwater Drum
GSF - Green Sunfish
KSB - Kentucky Spotted Bass
LMB - Largemouth Bass
LSF - Longear Sunfish
RB - Rock Bass / Goggle Eye
RSF - Redear Sunfish
RT - Rainbow Trout
SMB - Smallmouth Bass
WB - White Bass
WF - Whitefish
WL - WalleyeThe classic River Trips application is still available for use. It is updated with the new system using a data retrofit. It is no longer maintained. The original River Trips application is no longer updated (as of 1 Dec 2016) but can be checked for errors or for the condition of the data before it was converted to the new system.
| Observation | Height | Discharge | Maximum Discharge | Minimum Discharge | Mean Discharge | P05 | P10 | P20 | P25 | P50 (Median) | P75 | P80 | P90 | P95 |
|---|---|---|---|---|---|---|---|---|---|---|---|---|---|---|
| 2026-05-10 08:00 | 2.88 | 162 | 3420 (1950) | 45 (1956) | 266 | 53 | 71 | 95 | 106 | 174 | 290 | 335 | 484 | 822 |
| 2026-05-10 07:00 | 2.88 | 162 | 3420 (1950) | 45 (1956) | 266 | 53 | 71 | 95 | 106 | 174 | 290 | 335 | 484 | 822 |
| 2026-05-10 06:00 | 2.89 | 164 | 3420 (1950) | 45 (1956) | 266 | 53 | 71 | 95 | 106 | 174 | 290 | 335 | 484 | 822 |
| 2026-05-10 05:00 | 2.89 | 164 | 3420 (1950) | 45 (1956) | 266 | 53 | 71 | 95 | 106 | 174 | 290 | 335 | 484 | 822 |
| 2026-05-10 04:00 | 2.89 | 164 | 3420 (1950) | 45 (1956) | 266 | 53 | 71 | 95 | 106 | 174 | 290 | 335 | 484 | 822 |
| 2026-05-10 03:00 | 2.89 | 164 | 3420 (1950) | 45 (1956) | 266 | 53 | 71 | 95 | 106 | 174 | 290 | 335 | 484 | 822 |
| 2026-05-10 02:00 | 2.90 | 166 | 3420 (1950) | 45 (1956) | 266 | 53 | 71 | 95 | 106 | 174 | 290 | 335 | 484 | 822 |
| 2026-05-10 01:00 | 2.90 | 166 | 3420 (1950) | 45 (1956) | 266 | 53 | 71 | 95 | 106 | 174 | 290 | 335 | 484 | 822 |
| 2026-05-10 00:00 | 2.90 | 166 | 3420 (1950) | 45 (1956) | 266 | 53 | 71 | 95 | 106 | 174 | 290 | 335 | 484 | 822 |
| 2026-05-09 23:00 | 2.90 | 166 | 3420 (1950) | 45 (1956) | 266 | 53 | 71 | 95 | 106 | 174 | 290 | 335 | 484 | 822 |
| 2026-05-09 22:00 | 2.91 | 168 | 2220 (2002) | 44 (1956) | 265 | 53 | 62 | 84 | 100 | 160 | 308 | 330 | 488 | 728 |
| 2026-05-09 21:00 | 2.91 | 168 | 2220 (2002) | 44 (1956) | 265 | 53 | 62 | 84 | 100 | 160 | 308 | 330 | 488 | 728 |
| 2026-05-09 20:00 | 2.92 | 169 | 2220 (2002) | 44 (1956) | 265 | 53 | 62 | 84 | 100 | 160 | 308 | 330 | 488 | 728 |
| 2026-05-09 19:00 | 2.92 | 169 | 2220 (2002) | 44 (1956) | 265 | 53 | 62 | 84 | 100 | 160 | 308 | 330 | 488 | 728 |
| 2026-05-09 18:00 | 2.93 | 171 | 2220 (2002) | 44 (1956) | 265 | 53 | 62 | 84 | 100 | 160 | 308 | 330 | 488 | 728 |
| 2026-05-09 17:00 | 2.93 | 171 | 2220 (2002) | 44 (1956) | 265 | 53 | 62 | 84 | 100 | 160 | 308 | 330 | 488 | 728 |
| 2026-05-09 16:00 | 2.95 | 175 | 2220 (2002) | 44 (1956) | 265 | 53 | 62 | 84 | 100 | 160 | 308 | 330 | 488 | 728 |
| 2026-05-09 15:00 | 2.95 | 175 | 2220 (2002) | 44 (1956) | 265 | 53 | 62 | 84 | 100 | 160 | 308 | 330 | 488 | 728 |
| 2026-05-09 14:00 | 2.96 | 177 | 2220 (2002) | 44 (1956) | 265 | 53 | 62 | 84 | 100 | 160 | 308 | 330 | 488 | 728 |
| 2026-05-09 13:00 | 2.96 | 177 | 2220 (2002) | 44 (1956) | 265 | 53 | 62 | 84 | 100 | 160 | 308 | 330 | 488 | 728 |
| 2026-05-09 12:00 | 2.96 | 177 | 2220 (2002) | 44 (1956) | 265 | 53 | 62 | 84 | 100 | 160 | 308 | 330 | 488 | 728 |
| 2026-05-09 11:00 | 2.97 | 179 | 2220 (2002) | 44 (1956) | 265 | 53 | 62 | 84 | 100 | 160 | 308 | 330 | 488 | 728 |
| 2026-05-09 10:00 | 2.98 | 181 | 2220 (2002) | 44 (1956) | 265 | 53 | 62 | 84 | 100 | 160 | 308 | 330 | 488 | 728 |
| 2026-05-09 09:00 | 2.99 | 183 | 2220 (2002) | 44 (1956) | 265 | 53 | 62 | 84 | 100 | 160 | 308 | 330 | 488 | 728 |
| 2026-05-09 08:00 | 3.01 | 187 | 2220 (2002) | 44 (1956) | 265 | 53 | 62 | 84 | 100 | 160 | 308 | 330 | 488 | 728 |
| 2026-05-09 07:00 | 3.02 | 189 | 2220 (2002) | 44 (1956) | 265 | 53 | 62 | 84 | 100 | 160 | 308 | 330 | 488 | 728 |
| 2026-05-09 06:00 | 3.03 | 191 | 2220 (2002) | 44 (1956) | 265 | 53 | 62 | 84 | 100 | 160 | 308 | 330 | 488 | 728 |
| 2026-05-09 05:00 | 3.04 | 193 | 2220 (2002) | 44 (1956) | 265 | 53 | 62 | 84 | 100 | 160 | 308 | 330 | 488 | 728 |
| 2026-05-09 04:00 | 3.00 | 185 | 2220 (2002) | 44 (1956) | 265 | 53 | 62 | 84 | 100 | 160 | 308 | 330 | 488 | 728 |
| 2026-05-09 03:00 | 2.95 | 175 | 2220 (2002) | 44 (1956) | 265 | 53 | 62 | 84 | 100 | 160 | 308 | 330 | 488 | 728 |
| 2026-05-09 02:00 | 2.94 | 173 | 2220 (2002) | 44 (1956) | 265 | 53 | 62 | 84 | 100 | 160 | 308 | 330 | 488 | 728 |
| 2026-05-09 01:00 | 2.93 | 171 | 2220 (2002) | 44 (1956) | 265 | 53 | 62 | 84 | 100 | 160 | 308 | 330 | 488 | 728 |
| 2026-05-09 00:00 | 2.93 | 171 | 2220 (2002) | 44 (1956) | 265 | 53 | 62 | 84 | 100 | 160 | 308 | 330 | 488 | 728 |
| 2026-05-08 23:00 | 2.91 | 168 | 2220 (2002) | 44 (1956) | 265 | 53 | 62 | 84 | 100 | 160 | 308 | 330 | 488 | 728 |
| 2026-05-08 22:00 | 2.87 | 160 | 4570 (2002) | 44 (1956) | 375 | 56 | 62 | 90 | 97 | 150 | 331 | 357 | 601 | 1540 |
| 2026-05-08 21:00 | 2.86 | 158 | 4570 (2002) | 44 (1956) | 375 | 56 | 62 | 90 | 97 | 150 | 331 | 357 | 601 | 1540 |
| 2026-05-08 20:00 | 2.86 | 158 | 4570 (2002) | 44 (1956) | 375 | 56 | 62 | 90 | 97 | 150 | 331 | 357 | 601 | 1540 |
| 2026-05-08 19:00 | 2.86 | 158 | 4570 (2002) | 44 (1956) | 375 | 56 | 62 | 90 | 97 | 150 | 331 | 357 | 601 | 1540 |
| 2026-05-08 18:00 | 2.85 | 157 | 4570 (2002) | 44 (1956) | 375 | 56 | 62 | 90 | 97 | 150 | 331 | 357 | 601 | 1540 |
| 2026-05-08 17:00 | 2.86 | 158 | 4570 (2002) | 44 (1956) | 375 | 56 | 62 | 90 | 97 | 150 | 331 | 357 | 601 | 1540 |
| 2026-05-08 16:00 | 2.86 | 158 | 4570 (2002) | 44 (1956) | 375 | 56 | 62 | 90 | 97 | 150 | 331 | 357 | 601 | 1540 |
| 2026-05-08 15:00 | 2.86 | 158 | 4570 (2002) | 44 (1956) | 375 | 56 | 62 | 90 | 97 | 150 | 331 | 357 | 601 | 1540 |
| 2026-05-08 14:00 | 2.86 | 158 | 4570 (2002) | 44 (1956) | 375 | 56 | 62 | 90 | 97 | 150 | 331 | 357 | 601 | 1540 |
| 2026-05-08 13:00 | 2.87 | 160 | 4570 (2002) | 44 (1956) | 375 | 56 | 62 | 90 | 97 | 150 | 331 | 357 | 601 | 1540 |
| 2026-05-08 12:00 | 2.87 | 160 | 4570 (2002) | 44 (1956) | 375 | 56 | 62 | 90 | 97 | 150 | 331 | 357 | 601 | 1540 |
| 2026-05-08 11:00 | 2.86 | 158 | 4570 (2002) | 44 (1956) | 375 | 56 | 62 | 90 | 97 | 150 | 331 | 357 | 601 | 1540 |
| 2026-05-08 10:00 | 2.87 | 160 | 4570 (2002) | 44 (1956) | 375 | 56 | 62 | 90 | 97 | 150 | 331 | 357 | 601 | 1540 |
| 2026-05-08 09:00 | 2.87 | 160 | 4570 (2002) | 44 (1956) | 375 | 56 | 62 | 90 | 97 | 150 | 331 | 357 | 601 | 1540 |
| 2026-05-08 08:00 | 2.87 | 160 | 4570 (2002) | 44 (1956) | 375 | 56 | 62 | 90 | 97 | 150 | 331 | 357 | 601 | 1540 |
| 2026-05-08 07:00 | 2.87 | 160 | 4570 (2002) | 44 (1956) | 375 | 56 | 62 | 90 | 97 | 150 | 331 | 357 | 601 | 1540 |
| 2026-05-08 06:00 | 2.87 | 160 | 4570 (2002) | 44 (1956) | 375 | 56 | 62 | 90 | 97 | 150 | 331 | 357 | 601 | 1540 |
| 2026-05-08 05:00 | 2.87 | 160 | 4570 (2002) | 44 (1956) | 375 | 56 | 62 | 90 | 97 | 150 | 331 | 357 | 601 | 1540 |
| 2026-05-08 04:00 | 2.87 | 160 | 4570 (2002) | 44 (1956) | 375 | 56 | 62 | 90 | 97 | 150 | 331 | 357 | 601 | 1540 |
| 2026-05-08 03:00 | 2.88 | 162 | 4570 (2002) | 44 (1956) | 375 | 56 | 62 | 90 | 97 | 150 | 331 | 357 | 601 | 1540 |
| 2026-05-08 02:00 | 2.87 | 160 | 4570 (2002) | 44 (1956) | 375 | 56 | 62 | 90 | 97 | 150 | 331 | 357 | 601 | 1540 |
| 2026-05-08 01:00 | 2.87 | 160 | 4570 (2002) | 44 (1956) | 375 | 56 | 62 | 90 | 97 | 150 | 331 | 357 | 601 | 1540 |
| 2026-05-08 00:00 | 2.88 | 162 | 4570 (2002) | 44 (1956) | 375 | 56 | 62 | 90 | 97 | 150 | 331 | 357 | 601 | 1540 |
| 2026-05-07 23:00 | 2.88 | 162 | 4570 (2002) | 44 (1956) | 375 | 56 | 62 | 90 | 97 | 150 | 331 | 357 | 601 | 1540 |
| 2026-05-07 22:00 | 2.88 | 162 | 3960 (1961) | 48 (1981) | 317 | 55 | 62 | 96 | 101 | 160 | 338 | 391 | 663 | 1120 |
| 2026-05-07 21:00 | 2.88 | 162 | 3960 (1961) | 48 (1981) | 317 | 55 | 62 | 96 | 101 | 160 | 338 | 391 | 663 | 1120 |
| 2026-05-07 20:00 | 2.88 | 162 | 3960 (1961) | 48 (1981) | 317 | 55 | 62 | 96 | 101 | 160 | 338 | 391 | 663 | 1120 |
| 2026-05-07 19:00 | 2.89 | 164 | 3960 (1961) | 48 (1981) | 317 | 55 | 62 | 96 | 101 | 160 | 338 | 391 | 663 | 1120 |
| 2026-05-07 18:00 | 2.89 | 164 | 3960 (1961) | 48 (1981) | 317 | 55 | 62 | 96 | 101 | 160 | 338 | 391 | 663 | 1120 |
| 2026-05-07 17:00 | 2.90 | 166 | 3960 (1961) | 48 (1981) | 317 | 55 | 62 | 96 | 101 | 160 | 338 | 391 | 663 | 1120 |
| 2026-05-07 16:00 | 2.90 | 166 | 3960 (1961) | 48 (1981) | 317 | 55 | 62 | 96 | 101 | 160 | 338 | 391 | 663 | 1120 |
| 2026-05-07 15:00 | 2.91 | 168 | 3960 (1961) | 48 (1981) | 317 | 55 | 62 | 96 | 101 | 160 | 338 | 391 | 663 | 1120 |
| 2026-05-07 14:00 | 2.91 | 168 | 3960 (1961) | 48 (1981) | 317 | 55 | 62 | 96 | 101 | 160 | 338 | 391 | 663 | 1120 |
| 2026-05-07 13:00 | 2.92 | 169 | 3960 (1961) | 48 (1981) | 317 | 55 | 62 | 96 | 101 | 160 | 338 | 391 | 663 | 1120 |
| 2026-05-07 12:00 | 2.92 | 169 | 3960 (1961) | 48 (1981) | 317 | 55 | 62 | 96 | 101 | 160 | 338 | 391 | 663 | 1120 |
| 2026-05-07 11:00 | 2.92 | 169 | 3960 (1961) | 48 (1981) | 317 | 55 | 62 | 96 | 101 | 160 | 338 | 391 | 663 | 1120 |
| 2026-05-07 10:00 | 2.92 | 169 | 3960 (1961) | 48 (1981) | 317 | 55 | 62 | 96 | 101 | 160 | 338 | 391 | 663 | 1120 |
| 2026-05-07 09:00 | 2.92 | 169 | 3960 (1961) | 48 (1981) | 317 | 55 | 62 | 96 | 101 | 160 | 338 | 391 | 663 | 1120 |
| 2026-05-07 08:00 | 2.93 | 171 | 3960 (1961) | 48 (1981) | 317 | 55 | 62 | 96 | 101 | 160 | 338 | 391 | 663 | 1120 |
| 2026-05-07 07:00 | 2.93 | 171 | 3960 (1961) | 48 (1981) | 317 | 55 | 62 | 96 | 101 | 160 | 338 | 391 | 663 | 1120 |
| 2026-05-07 06:00 | 2.93 | 171 | 3960 (1961) | 48 (1981) | 317 | 55 | 62 | 96 | 101 | 160 | 338 | 391 | 663 | 1120 |
| 2026-05-07 05:00 | 2.93 | 171 | 3960 (1961) | 48 (1981) | 317 | 55 | 62 | 96 | 101 | 160 | 338 | 391 | 663 | 1120 |
| 2026-05-07 04:00 | 2.94 | 173 | 3960 (1961) | 48 (1981) | 317 | 55 | 62 | 96 | 101 | 160 | 338 | 391 | 663 | 1120 |
| 2026-05-07 03:00 | 2.94 | 173 | 3960 (1961) | 48 (1981) | 317 | 55 | 62 | 96 | 101 | 160 | 338 | 391 | 663 | 1120 |
| 2026-05-07 02:00 | 2.94 | 173 | 3960 (1961) | 48 (1981) | 317 | 55 | 62 | 96 | 101 | 160 | 338 | 391 | 663 | 1120 |
| 2026-05-07 01:00 | 2.94 | 173 | 3960 (1961) | 48 (1981) | 317 | 55 | 62 | 96 | 101 | 160 | 338 | 391 | 663 | 1120 |
| 2026-05-07 00:00 | 2.94 | 173 | 3960 (1961) | 48 (1981) | 317 | 55 | 62 | 96 | 101 | 160 | 338 | 391 | 663 | 1120 |
| 2026-05-06 23:00 | 2.95 | 175 | 3960 (1961) | 48 (1981) | 317 | 55 | 62 | 96 | 101 | 160 | 338 | 391 | 663 | 1120 |
| 2026-05-06 22:00 | 2.95 | 175 | 7420 (1929) | 39 (1956) | 369 | 55 | 63 | 86 | 103 | 162 | 272 | 350 | 489 | 1300 |
| 2026-05-06 21:00 | 2.95 | 175 | 7420 (1929) | 39 (1956) | 369 | 55 | 63 | 86 | 103 | 162 | 272 | 350 | 489 | 1300 |
| 2026-05-06 20:00 | 2.96 | 177 | 7420 (1929) | 39 (1956) | 369 | 55 | 63 | 86 | 103 | 162 | 272 | 350 | 489 | 1300 |
| 2026-05-06 19:00 | 2.96 | 177 | 7420 (1929) | 39 (1956) | 369 | 55 | 63 | 86 | 103 | 162 | 272 | 350 | 489 | 1300 |
| 2026-05-06 18:00 | 2.97 | 179 | 7420 (1929) | 39 (1956) | 369 | 55 | 63 | 86 | 103 | 162 | 272 | 350 | 489 | 1300 |
| 2026-05-06 17:00 | 2.97 | 179 | 7420 (1929) | 39 (1956) | 369 | 55 | 63 | 86 | 103 | 162 | 272 | 350 | 489 | 1300 |
| 2026-05-06 16:00 | 2.98 | 181 | 7420 (1929) | 39 (1956) | 369 | 55 | 63 | 86 | 103 | 162 | 272 | 350 | 489 | 1300 |
| 2026-05-06 15:00 | 2.99 | 183 | 7420 (1929) | 39 (1956) | 369 | 55 | 63 | 86 | 103 | 162 | 272 | 350 | 489 | 1300 |
| 2026-05-06 14:00 | 2.99 | 183 | 7420 (1929) | 39 (1956) | 369 | 55 | 63 | 86 | 103 | 162 | 272 | 350 | 489 | 1300 |
| 2026-05-06 13:00 | 3.00 | 185 | 7420 (1929) | 39 (1956) | 369 | 55 | 63 | 86 | 103 | 162 | 272 | 350 | 489 | 1300 |
| 2026-05-06 12:00 | 3.00 | 185 | 7420 (1929) | 39 (1956) | 369 | 55 | 63 | 86 | 103 | 162 | 272 | 350 | 489 | 1300 |
| 2026-05-06 11:00 | 3.01 | 187 | 7420 (1929) | 39 (1956) | 369 | 55 | 63 | 86 | 103 | 162 | 272 | 350 | 489 | 1300 |
| 2026-05-06 10:00 | 3.02 | 189 | 7420 (1929) | 39 (1956) | 369 | 55 | 63 | 86 | 103 | 162 | 272 | 350 | 489 | 1300 |
| 2026-05-06 09:00 | 3.02 | 189 | 7420 (1929) | 39 (1956) | 369 | 55 | 63 | 86 | 103 | 162 | 272 | 350 | 489 | 1300 |
| 2026-05-06 08:00 | 3.03 | 191 | 7420 (1929) | 39 (1956) | 369 | 55 | 63 | 86 | 103 | 162 | 272 | 350 | 489 | 1300 |
| 2026-05-06 07:00 | 3.04 | 193 | 7420 (1929) | 39 (1956) | 369 | 55 | 63 | 86 | 103 | 162 | 272 | 350 | 489 | 1300 |
| 2026-05-06 06:00 | 3.05 | 195 | 7420 (1929) | 39 (1956) | 369 | 55 | 63 | 86 | 103 | 162 | 272 | 350 | 489 | 1300 |
| 2026-05-06 05:00 | 3.06 | 197 | 7420 (1929) | 39 (1956) | 369 | 55 | 63 | 86 | 103 | 162 | 272 | 350 | 489 | 1300 |
| 2026-05-06 04:00 | 3.06 | 197 | 7420 (1929) | 39 (1956) | 369 | 55 | 63 | 86 | 103 | 162 | 272 | 350 | 489 | 1300 |
| 2026-05-06 03:00 | 3.05 | 195 | 7420 (1929) | 39 (1956) | 369 | 55 | 63 | 86 | 103 | 162 | 272 | 350 | 489 | 1300 |
| 2026-05-06 02:00 | 3.03 | 191 | 7420 (1929) | 39 (1956) | 369 | 55 | 63 | 86 | 103 | 162 | 272 | 350 | 489 | 1300 |
| 2026-05-06 01:00 | 3.02 | 189 | 7420 (1929) | 39 (1956) | 369 | 55 | 63 | 86 | 103 | 162 | 272 | 350 | 489 | 1300 |
| 2026-05-06 00:00 | 3.01 | 187 | 7420 (1929) | 39 (1956) | 369 | 55 | 63 | 86 | 103 | 162 | 272 | 350 | 489 | 1300 |
| 2026-05-05 23:00 | 3.00 | 185 | 7420 (1929) | 39 (1956) | 369 | 55 | 63 | 86 | 103 | 162 | 272 | 350 | 489 | 1300 |
| 2026-05-05 22:00 | 2.99 | 183 | 3800 (2022) | 40 (1956) | 295 | 55 | 65 | 88 | 103 | 164 | 262 | 291 | 486 | 748 |
| 2026-05-05 21:00 | 2.98 | 181 | 3800 (2022) | 40 (1956) | 295 | 55 | 65 | 88 | 103 | 164 | 262 | 291 | 486 | 748 |
| 2026-05-05 20:00 | 2.98 | 181 | 3800 (2022) | 40 (1956) | 295 | 55 | 65 | 88 | 103 | 164 | 262 | 291 | 486 | 748 |
| 2026-05-05 19:00 | 2.97 | 179 | 3800 (2022) | 40 (1956) | 295 | 55 | 65 | 88 | 103 | 164 | 262 | 291 | 486 | 748 |
| 2026-05-05 18:00 | 2.97 | 179 | 3800 (2022) | 40 (1956) | 295 | 55 | 65 | 88 | 103 | 164 | 262 | 291 | 486 | 748 |
| 2026-05-05 17:00 | 2.97 | 179 | 3800 (2022) | 40 (1956) | 295 | 55 | 65 | 88 | 103 | 164 | 262 | 291 | 486 | 748 |
| 2026-05-05 16:00 | 2.97 | 179 | 3800 (2022) | 40 (1956) | 295 | 55 | 65 | 88 | 103 | 164 | 262 | 291 | 486 | 748 |
| 2026-05-05 15:00 | 2.97 | 179 | 3800 (2022) | 40 (1956) | 295 | 55 | 65 | 88 | 103 | 164 | 262 | 291 | 486 | 748 |
| 2026-05-05 14:00 | 2.98 | 181 | 3800 (2022) | 40 (1956) | 295 | 55 | 65 | 88 | 103 | 164 | 262 | 291 | 486 | 748 |
| 2026-05-05 13:00 | 2.99 | 183 | 3800 (2022) | 40 (1956) | 295 | 55 | 65 | 88 | 103 | 164 | 262 | 291 | 486 | 748 |
| 2026-05-05 12:00 | 2.99 | 183 | 3800 (2022) | 40 (1956) | 295 | 55 | 65 | 88 | 103 | 164 | 262 | 291 | 486 | 748 |
| 2026-05-05 11:00 | 2.99 | 183 | 3800 (2022) | 40 (1956) | 295 | 55 | 65 | 88 | 103 | 164 | 262 | 291 | 486 | 748 |
| 2026-05-05 10:00 | 3.00 | 185 | 3800 (2022) | 40 (1956) | 295 | 55 | 65 | 88 | 103 | 164 | 262 | 291 | 486 | 748 |
| 2026-05-05 09:00 | 3.00 | 185 | 3800 (2022) | 40 (1956) | 295 | 55 | 65 | 88 | 103 | 164 | 262 | 291 | 486 | 748 |
| 2026-05-05 08:00 | 3.01 | 187 | 3800 (2022) | 40 (1956) | 295 | 55 | 65 | 88 | 103 | 164 | 262 | 291 | 486 | 748 |
| 2026-05-05 07:00 | 3.00 | 185 | 3800 (2022) | 40 (1956) | 295 | 55 | 65 | 88 | 103 | 164 | 262 | 291 | 486 | 748 |
| 2026-05-05 06:00 | 2.98 | 181 | 3800 (2022) | 40 (1956) | 295 | 55 | 65 | 88 | 103 | 164 | 262 | 291 | 486 | 748 |
| 2026-05-05 05:00 | 2.97 | 179 | 3800 (2022) | 40 (1956) | 295 | 55 | 65 | 88 | 103 | 164 | 262 | 291 | 486 | 748 |
| 2026-05-05 04:00 | 2.98 | 181 | 3800 (2022) | 40 (1956) | 295 | 55 | 65 | 88 | 103 | 164 | 262 | 291 | 486 | 748 |
| 2026-05-05 03:00 | 2.98 | 181 | 3800 (2022) | 40 (1956) | 295 | 55 | 65 | 88 | 103 | 164 | 262 | 291 | 486 | 748 |
| 2026-05-05 02:00 | 2.98 | 181 | 3800 (2022) | 40 (1956) | 295 | 55 | 65 | 88 | 103 | 164 | 262 | 291 | 486 | 748 |
| 2026-05-05 01:00 | 2.98 | 181 | 3800 (2022) | 40 (1956) | 295 | 55 | 65 | 88 | 103 | 164 | 262 | 291 | 486 | 748 |
| 2026-05-05 00:00 | 2.98 | 181 | 3800 (2022) | 40 (1956) | 295 | 55 | 65 | 88 | 103 | 164 | 262 | 291 | 486 | 748 |
| 2026-05-04 23:00 | 2.99 | 183 | 3800 (2022) | 40 (1956) | 295 | 55 | 65 | 88 | 103 | 164 | 262 | 291 | 486 | 748 |
| 2026-05-04 22:00 | 2.99 | 183 | 6590 (2017) | 43 (1956) | 296 | 56 | 67 | 91 | 106 | 168 | 284 | 309 | 486 | 754 |
| 2026-05-04 21:00 | 2.99 | 183 | 6590 (2017) | 43 (1956) | 296 | 56 | 67 | 91 | 106 | 168 | 284 | 309 | 486 | 754 |
| 2026-05-04 20:00 | 2.99 | 183 | 6590 (2017) | 43 (1956) | 296 | 56 | 67 | 91 | 106 | 168 | 284 | 309 | 486 | 754 |
| 2026-05-04 19:00 | 2.99 | 183 | 6590 (2017) | 43 (1956) | 296 | 56 | 67 | 91 | 106 | 168 | 284 | 309 | 486 | 754 |
| 2026-05-04 18:00 | 3.00 | 185 | 6590 (2017) | 43 (1956) | 296 | 56 | 67 | 91 | 106 | 168 | 284 | 309 | 486 | 754 |
| 2026-05-04 17:00 | 3.00 | 185 | 6590 (2017) | 43 (1956) | 296 | 56 | 67 | 91 | 106 | 168 | 284 | 309 | 486 | 754 |
| 2026-05-04 16:00 | 3.01 | 187 | 6590 (2017) | 43 (1956) | 296 | 56 | 67 | 91 | 106 | 168 | 284 | 309 | 486 | 754 |
| 2026-05-04 15:00 | 3.02 | 189 | 6590 (2017) | 43 (1956) | 296 | 56 | 67 | 91 | 106 | 168 | 284 | 309 | 486 | 754 |
| 2026-05-04 14:00 | 3.02 | 189 | 6590 (2017) | 43 (1956) | 296 | 56 | 67 | 91 | 106 | 168 | 284 | 309 | 486 | 754 |
| 2026-05-04 13:00 | 3.03 | 191 | 6590 (2017) | 43 (1956) | 296 | 56 | 67 | 91 | 106 | 168 | 284 | 309 | 486 | 754 |
| 2026-05-04 12:00 | 3.03 | 191 | 6590 (2017) | 43 (1956) | 296 | 56 | 67 | 91 | 106 | 168 | 284 | 309 | 486 | 754 |
| 2026-05-04 11:00 | 3.03 | 191 | 6590 (2017) | 43 (1956) | 296 | 56 | 67 | 91 | 106 | 168 | 284 | 309 | 486 | 754 |
| 2026-05-04 10:00 | 3.03 | 191 | 6590 (2017) | 43 (1956) | 296 | 56 | 67 | 91 | 106 | 168 | 284 | 309 | 486 | 754 |
| 2026-05-04 09:00 | 3.03 | 191 | 6590 (2017) | 43 (1956) | 296 | 56 | 67 | 91 | 106 | 168 | 284 | 309 | 486 | 754 |
| 2026-05-04 08:00 | 3.04 | 193 | 6590 (2017) | 43 (1956) | 296 | 56 | 67 | 91 | 106 | 168 | 284 | 309 | 486 | 754 |
| 2026-05-04 07:00 | 3.04 | 193 | 6590 (2017) | 43 (1956) | 296 | 56 | 67 | 91 | 106 | 168 | 284 | 309 | 486 | 754 |
| 2026-05-04 06:00 | 3.04 | 193 | 6590 (2017) | 43 (1956) | 296 | 56 | 67 | 91 | 106 | 168 | 284 | 309 | 486 | 754 |
| 2026-05-04 05:00 | 3.04 | 193 | 6590 (2017) | 43 (1956) | 296 | 56 | 67 | 91 | 106 | 168 | 284 | 309 | 486 | 754 |
| 2026-05-04 04:00 | 3.04 | 193 | 6590 (2017) | 43 (1956) | 296 | 56 | 67 | 91 | 106 | 168 | 284 | 309 | 486 | 754 |
| 2026-05-04 03:00 | 3.04 | 193 | 6590 (2017) | 43 (1956) | 296 | 56 | 67 | 91 | 106 | 168 | 284 | 309 | 486 | 754 |
| 2026-05-04 02:00 | 3.04 | 193 | 6590 (2017) | 43 (1956) | 296 | 56 | 67 | 91 | 106 | 168 | 284 | 309 | 486 | 754 |
| 2026-05-04 01:00 | 3.05 | 195 | 6590 (2017) | 43 (1956) | 296 | 56 | 67 | 91 | 106 | 168 | 284 | 309 | 486 | 754 |
| 2026-05-04 00:00 | 3.05 | 195 | 6590 (2017) | 43 (1956) | 296 | 56 | 67 | 91 | 106 | 168 | 284 | 309 | 486 | 754 |
| 2026-05-03 23:00 | 3.05 | 195 | 6590 (2017) | 43 (1956) | 296 | 56 | 67 | 91 | 106 | 168 | 284 | 309 | 486 | 754 |
| 2026-05-03 22:00 | 3.05 | 195 | 4650 (1990) | 44 (1981) | 294 | 56 | 75 | 99 | 112 | 181 | 316 | 383 | 560 | 755 |
| 2026-05-03 21:00 | 3.06 | 197 | 4650 (1990) | 44 (1981) | 294 | 56 | 75 | 99 | 112 | 181 | 316 | 383 | 560 | 755 |
| 2026-05-03 20:00 | 3.06 | 197 | 4650 (1990) | 44 (1981) | 294 | 56 | 75 | 99 | 112 | 181 | 316 | 383 | 560 | 755 |
| 2026-05-03 19:00 | 3.06 | 197 | 4650 (1990) | 44 (1981) | 294 | 56 | 75 | 99 | 112 | 181 | 316 | 383 | 560 | 755 |
| 2026-05-03 18:00 | 3.06 | 197 | 4650 (1990) | 44 (1981) | 294 | 56 | 75 | 99 | 112 | 181 | 316 | 383 | 560 | 755 |
| 2026-05-03 17:00 | 3.07 | 199 | 4650 (1990) | 44 (1981) | 294 | 56 | 75 | 99 | 112 | 181 | 316 | 383 | 560 | 755 |
| 2026-05-03 16:00 | 3.08 | 201 | 4650 (1990) | 44 (1981) | 294 | 56 | 75 | 99 | 112 | 181 | 316 | 383 | 560 | 755 |
| 2026-05-03 15:00 | 3.09 | 203 | 4650 (1990) | 44 (1981) | 294 | 56 | 75 | 99 | 112 | 181 | 316 | 383 | 560 | 755 |
| 2026-05-03 14:00 | 3.09 | 203 | 4650 (1990) | 44 (1981) | 294 | 56 | 75 | 99 | 112 | 181 | 316 | 383 | 560 | 755 |
| 2026-05-03 13:00 | 3.09 | 203 | 4650 (1990) | 44 (1981) | 294 | 56 | 75 | 99 | 112 | 181 | 316 | 383 | 560 | 755 |
| 2026-05-03 12:00 | 3.10 | 205 | 4650 (1990) | 44 (1981) | 294 | 56 | 75 | 99 | 112 | 181 | 316 | 383 | 560 | 755 |
| 2026-05-03 11:00 | 3.10 | 205 | 4650 (1990) | 44 (1981) | 294 | 56 | 75 | 99 | 112 | 181 | 316 | 383 | 560 | 755 |
| 2026-05-03 10:00 | 3.10 | 205 | 4650 (1990) | 44 (1981) | 294 | 56 | 75 | 99 | 112 | 181 | 316 | 383 | 560 | 755 |
| 2026-05-03 09:00 | 3.11 | 207 | 4650 (1990) | 44 (1981) | 294 | 56 | 75 | 99 | 112 | 181 | 316 | 383 | 560 | 755 |
| 2026-05-03 08:00 | 3.11 | 207 | 4650 (1990) | 44 (1981) | 294 | 56 | 75 | 99 | 112 | 181 | 316 | 383 | 560 | 755 |
| 2026-05-03 07:00 | 3.11 | 207 | 4650 (1990) | 44 (1981) | 294 | 56 | 75 | 99 | 112 | 181 | 316 | 383 | 560 | 755 |
| 2026-05-03 06:00 | 3.11 | 207 | 4650 (1990) | 44 (1981) | 294 | 56 | 75 | 99 | 112 | 181 | 316 | 383 | 560 | 755 |
| 2026-05-03 05:00 | 3.12 | 209 | 4650 (1990) | 44 (1981) | 294 | 56 | 75 | 99 | 112 | 181 | 316 | 383 | 560 | 755 |
| 2026-05-03 04:00 | 3.13 | 211 | 4650 (1990) | 44 (1981) | 294 | 56 | 75 | 99 | 112 | 181 | 316 | 383 | 560 | 755 |
| 2026-05-03 03:00 | 3.12 | 209 | 4650 (1990) | 44 (1981) | 294 | 56 | 75 | 99 | 112 | 181 | 316 | 383 | 560 | 755 |
| 2026-05-03 02:00 | 3.13 | 211 | 4650 (1990) | 44 (1981) | 294 | 56 | 75 | 99 | 112 | 181 | 316 | 383 | 560 | 755 |
| 2026-05-03 01:00 | 3.13 | 211 | 4650 (1990) | 44 (1981) | 294 | 56 | 75 | 99 | 112 | 181 | 316 | 383 | 560 | 755 |
| 2026-05-03 00:00 | 3.14 | 213 | 4650 (1990) | 44 (1981) | 294 | 56 | 75 | 99 | 112 | 181 | 316 | 383 | 560 | 755 |
| 2026-05-02 23:00 | 3.14 | 213 | 4650 (1990) | 44 (1981) | 294 | 56 | 75 | 99 | 112 | 181 | 316 | 383 | 560 | 755 |
A total of 178 rows are displayed for years 1929 through 2025.